GW6978 Weather Reports


Display with metric or nautical units.
time (UTC)temp
F
wind
direction
speed
MPH
gust
MPH
rain 1hr
in
rain 24hr
in
rain mn
in
humidity
%
barometer
mb
20260504081904 73 118 3.0 4.0 0.00 0.12 0.00 80 1019.9
20260504081811 73 126 3.0 4.0 0.00 0.12 0.00 80 1019.9
20260504081714 73 128 3.0 4.0 0.00 0.12 0.00 80 1019.9
20260504081636 73 107 2.0 4.0 0.00 0.12 0.00 80 1019.9
20260504081518 73 107 2.0 4.0 0.00 0.12 0.00 80 1019.9
20260504081421 73 107 2.0 4.0 0.00 0.12 0.00 80 1020.0
20260504081303 73 108 2.0 4.0 0.00 0.12 0.00 80 1020.1
20260504081210 73 108 1.0 4.0 0.00 0.12 0.00 80 1020.1
20260504081114 73 108 1.0 7.0 0.00 0.12 0.00 80 1020.1
20260504081017 73 108 2.0 7.0 0.00 0.12 0.00 80 1020.1
20260504080920 73 109 2.0 7.0 0.00 0.12 0.00 80 1020.1
20260504080823 73 108 2.0 8.0 0.00 0.12 0.00 80 1020.2
20260504080703 73 108 2.0 8.0 0.00 0.12 0.00 80 1020.2
20260504080605 73 108 2.0 9.0 0.00 0.12 0.00 80 1020.3
20260504080513 73 109 2.0 9.0 0.00 0.12 0.00 80 1020.3
20260504080435 73 105 3.0 9.0 0.00 0.12 0.00 80 1020.3
20260504080318 73 104 3.0 9.0 0.00 0.12 0.00 80 1020.3
20260504080222 73 104 4.0 9.0 0.00 0.12 0.00 80 1020.3
20260504080104 73 128 5.0 9.0 0.00 0.12 0.00 80 1020.4
20260504070412 71 248 0.0 2.0 0.00 0.12 0.00 83 1021.2
20260504070316 71 248 0.0 2.0 0.00 0.12 0.00 83 1021.1
20260504070220 71 248 0.0 2.0 0.00 0.12 0.00 83 1021.2
20260504070122 71 248 0.0 2.0 0.00 0.12 0.00 83 1021.2
20260504060214 72 248 0.0 0.0 0.00 0.12 0.00 82 1022.1
20260504060116 72 248 0.0 0.0 0.00 0.12 0.00 82 1022.2
20260504050742 72 284 0.0 2.0 0.00 0.12 0.03 82 1022.9
20260504050609 72 284 1.0 3.0 0.00 0.12 0.03 82 1023.0
20260504050511 72 284 1.0 3.0 0.00 0.12 0.03 81 1023.0
20260504050414 72 284 1.0 3.0 0.00 0.12 0.03 81 1023.1
20260504050338 72 284 1.0 3.0 0.00 0.12 0.03 81 1023.1
20260504050242 72 284 1.0 4.0 0.00 0.12 0.03 81 1023.0
20260504050104 72 284 1.0 4.0 0.00 0.12 0.03 81 1023.0
20260504050006 72 284 1.0 4.0 0.00 0.12 0.03 81 1023.0
20260504045909 72 285 2.0 4.0 0.00 0.12 0.03 81 1023.1
20260504045832 73 284 2.0 4.0 0.00 0.12 0.03 81 1023.1
20260504045717 73 284 2.0 4.0 0.00 0.12 0.03 81 1023.1
20260504045620 73 284 3.0 4.0 0.00 0.12 0.03 81 1023.1
20260504045523 73 284 3.0 4.0 0.00 0.12 0.03 81 1023.1
20260504045407 73 284 3.0 4.0 0.00 0.12 0.03 81 1023.1
20260504045310 73 286 3.0 4.0 0.00 0.12 0.03 81 1023.0
20260504045212 73 286 2.0 4.0 0.00 0.12 0.03 81 1023.1
20260504045140 73 287 2.0 3.0 0.00 0.12 0.03 81 1023.1
20260504045023 73 287 2.0 3.0 0.00 0.12 0.03 81 1023.1
20260504044927 73 287 2.0 3.0 0.00 0.12 0.03 81 1023.2
20260504044809 73 287 2.0 3.0 0.00 0.12 0.03 81 1023.2
20260504044712 73 287 2.0 3.0 0.00 0.12 0.03 81 1023.3
20260504044614 73 287 1.0 3.0 0.00 0.12 0.03 81 1023.2
20260504044518 73 287 1.0 3.0 0.00 0.12 0.03 81 1023.2
20260504044405 73 287 1.0 3.0 0.00 0.12 0.03 81 1023.2
20260504044309 73 287 1.0 3.0 0.00 0.12 0.03 81 1023.3
20260504044213 73 287 2.0 3.0 0.00 0.12 0.03 81 1023.2
20260504044116 73 287 2.0 3.0 0.00 0.12 0.03 81 1023.2
20260504044020 73 287 2.0 3.0 0.00 0.12 0.03 81 1023.3
20260504043943 73 287 2.0 3.0 0.00 0.12 0.03 81 1023.3
20260504043810 73 287 2.0 3.0 0.00 0.12 0.03 81 1023.4
20260504043734 73 287 2.0 3.0 0.00 0.12 0.03 81 1023.4
20260504043614 73 287 1.0 3.0 0.00 0.12 0.03 81 1023.3
20260504043516 73 287 1.0 2.0 0.00 0.12 0.03 80 1023.5
20260504043439 73 287 0.0 1.0 0.00 0.12 0.03 80 1023.5
20260504043341 73 287 0.0 2.0 0.00 0.12 0.03 80 1023.5
20260504043204 73 287 0.0 2.0 0.00 0.12 0.03 80 1023.5
20260504043107 73 287 0.0 2.0 0.00 0.12 0.03 80 1023.5
20260504043014 73 287 0.0 2.0 0.00 0.12 0.03 80 1023.5
20260504042917 73 287 0.0 2.0 0.00 0.12 0.03 80 1023.4
20260504042821 73 287 0.0 2.0 0.00 0.12 0.03 80 1023.3
20260504042704 73 287 0.0 3.0 0.00 0.12 0.03 80 1023.4
20260504042608 73 287 0.0 3.0 0.00 0.12 0.03 80 1023.4
20260504042512 73 287 1.0 3.0 0.00 0.12 0.03 80 1023.3
20260504042414 73 287 1.0 3.0 0.00 0.12 0.03 80 1023.3
20260504042320 73 287 0.0 3.0 0.00 0.12 0.03 80 1023.2
20260504042205 73 287 1.0 3.0 0.00 0.12 0.03 80 1023.3
20260504042107 73 287 1.0 3.0 0.00 0.12 0.03 80 1023.3
20260504042011 73 287 2.0 3.0 0.00 0.12 0.03 80 1023.3
20260504041914 73 287 1.0 3.0 0.00 0.12 0.03 80 1023.3
20260504041819 73 290 1.0 2.0 0.00 0.12 0.03 80 1023.4
20260504041726 73 290 1.0 2.0 0.00 0.12 0.03 80 1023.4
20260504041608 73 290 1.0 2.0 0.00 0.12 0.03 80 1023.3
20260504041511 73 290 2.0 2.0 0.00 0.12 0.03 80 1023.3
20260504041414 73 290 2.0 2.0 0.00 0.12 0.03 80 1023.4
20260504041337 73 290 1.0 2.0 0.00 0.12 0.03 79 1023.3
20260504041240 73 290 1.0 2.0 0.00 0.12 0.03 79 1023.3
20260504041142 73 290 1.0 2.0 0.00 0.12 0.03 79 1023.3
20260504041008 73 290 1.0 2.0 0.00 0.12 0.03 79 1023.3
20260504040912 73 290 0.0 2.0 0.00 0.12 0.03 79 1023.3
20260504040815 73 290 0.0 2.0 0.00 0.12 0.03 79 1023.4
20260504040717 73 290 0.0 2.0 0.00 0.12 0.03 79 1023.3
20260504040639 74 290 0.0 3.0 0.00 0.12 0.03 79 1023.3
20260504040541 74 290 1.0 3.0 0.00 0.12 0.03 79 1023.2
20260504040420 74 290 1.0 3.0 0.00 0.12 0.03 79 1023.4
20260504040304 74 290 0.0 3.0 0.00 0.12 0.03 79 1023.2
20260504040208 74 290 0.0 3.0 0.00 0.12 0.03 79 1023.3
20260504040115 74 290 1.0 3.0 0.00 0.12 0.03 79 1023.3
20260504040018 74 290 1.0 3.0 0.00 0.12 0.03 79 1023.2
20260504035919 74 290 2.0 3.0 0.00 0.12 0.03 79 1023.2
20260504035821 74 290 2.0 3.0 0.00 0.12 0.03 79 1023.2
20260504035722 74 290 2.0 3.0 0.00 0.12 0.03 79 1023.3
20260504035605 74 290 1.0 3.0 0.00 0.12 0.03 79 1023.3
20260504035528 74 290 0.0 2.0 0.00 0.12 0.03 79 1023.2
20260504035431 74 290 0.0 2.0 0.00 0.12 0.03 79 1023.2
20260504035314 74 290 0.0 2.0 0.00 0.12 0.03 79 1023.1
20260504035218 74 290 0.0 2.0 0.00 0.12 0.03 79 1023.1
20260504035120 74 290 0.0 2.0 0.00 0.12 0.03 79 1023.1
20260504035023 74 290 0.0 2.0 0.00 0.12 0.03 79 1023.1
20260504034905 74 290 1.0 2.0 0.00 0.12 0.03 79 1023.0
20260504034808 74 290 0.0 3.0 0.00 0.12 0.03 80 1023.1
20260504034710 74 290 0.0 3.0 0.00 0.12 0.03 79 1023.0
20260504034618 74 290 0.0 3.0 0.00 0.12 0.03 80 1023.1
20260504034522 74 290 0.0 4.0 0.00 0.12 0.03 80 1023.0
20260504034405 74 290 1.0 4.0 0.00 0.12 0.03 80 1023.0
20260504034308 74 290 1.0 4.0 0.00 0.12 0.03 80 1023.0
20260504034211 74 290 2.0 4.0 0.00 0.12 0.03 80 1023.0
20260504034114 74 288 2.0 4.0 0.00 0.12 0.03 80 1022.8
20260504034022 74 288 2.0 4.0 0.00 0.12 0.03 80 1022.8
20260504033906 74 288 2.0 4.0 0.00 0.12 0.03 80 1022.7
20260504033809 74 287 2.0 4.0 0.00 0.12 0.03 80 1022.8
20260504033713 74 284 2.0 4.0 0.00 0.12 0.03 80 1022.7
20260504033635 74 138 1.0 3.0 0.00 0.12 0.03 80 1022.7
20260504033517 74 138 1.0 3.0 0.00 0.12 0.03 80 1022.7
20260504033418 74 138 1.0 3.0 0.00 0.12 0.03 80 1022.7
20260504033305 74 138 2.0 3.0 0.00 0.12 0.03 80 1022.6
20260504033209 74 138 2.0 3.0 0.00 0.12 0.03 80 1022.6
20260504033113 74 138 2.0 3.0 0.00 0.12 0.03 80 1022.7
20260504033017 74 138 2.0 3.0 0.00 0.12 0.03 80 1022.6
20260504032921 74 138 1.0 3.0 0.00 0.12 0.03 80 1022.7
20260504032804 74 138 1.0 2.0 0.00 0.12 0.03 80 1022.7
20260504032711 74 138 0.0 2.0 0.00 0.12 0.03 80 1022.7
20260504032615 74 138 0.0 2.0 0.00 0.12 0.03 80 1022.7
20260504032519 74 138 0.0 2.0 0.00 0.12 0.03 80 1022.6
20260504032442 74 138 0.0 3.0 0.00 0.12 0.03 80 1022.7
20260504032344 74 138 0.0 3.0 0.00 0.12 0.03 80 1022.6
20260504032203 74 138 1.0 3.0 0.00 0.12 0.03 80 1022.6
20260504032105 74 138 1.0 3.0 0.00 0.12 0.03 80 1022.6
20260504032008 74 138 1.0 3.0 0.00 0.12 0.03 80 1022.5
20260504031916 74 138 0.0 3.0 0.00 0.12 0.03 80 1022.5
20260504031818 74 138 0.0 3.0 0.00 0.12 0.03 80 1022.6
20260504031721 74 138 1.0 3.0 0.00 0.12 0.03 81 1022.5
20260504031622 74 138 2.0 3.0 0.00 0.12 0.03 81 1022.4
20260504031525 74 138 2.0 3.0 0.00 0.12 0.03 81 1022.4
20260504031408 74 138 2.0 3.0 0.00 0.12 0.03 81 1022.4
20260504031331 74 122 2.0 3.0 0.00 0.12 0.03 81 1022.4
20260504031212 74 122 2.0 3.0 0.00 0.12 0.03 81 1022.4
20260504031138 74 122 1.0 3.0 0.00 0.12 0.03 81 1022.3
20260504031041 74 122 0.0 2.0 0.00 0.12 0.03 81 1022.3
20260504030944 74 121 0.0 2.0 0.00 0.12 0.03 81 1022.4
20260504030806 74 121 0.0 2.0 0.00 0.12 0.03 81 1022.4
20260504030710 74 121 0.0 2.0 0.00 0.12 0.03 81 1022.4
20260504030613 74 121 1.0 2.0 0.00 0.12 0.03 81 1022.3
20260504030536 74 121 0.0 2.0 0.00 0.12 0.03 81 1022.4
20260504030417 74 121 1.0 2.0 0.00 0.12 0.03 81 1022.3
20260504030340 74 121 1.0 2.0 0.00 0.12 0.03 81 1022.3
20260504030207 74 122 0.0 2.0 0.00 0.12 0.03 81 1022.4
20260504030109 74 121 0.0 2.0 0.00 0.12 0.03 81 1022.3
20260504030012 74 121 0.0 2.0 0.00 0.12 0.03 81 1022.6
20260504025916 74 122 1.0 2.0 0.00 0.12 0.03 81 1022.4
20260504025820 74 122 1.0 2.0 0.00 0.12 0.03 80 1022.4
20260504025707 74 122 1.0 2.0 0.00 0.12 0.03 81 1022.3
20260504025610 74 122 1.0 2.0 0.00 0.12 0.03 81 1022.4
20260504025514 74 122 1.0 3.0 0.00 0.12 0.03 80 1022.5
20260504025437 74 122 1.0 3.0 0.00 0.12 0.03 80 1022.4
20260504025339 74 122 0.0 3.0 0.00 0.12 0.03 80 1022.4
20260504025219 74 122 0.0 3.0 0.00 0.12 0.03 80 1022.4
20260504025143 74 122 0.0 3.0 0.00 0.12 0.03 80 1022.4
20260504025022 74 122 1.0 3.0 0.00 0.12 0.03 80 1022.5
20260504024907 74 122 2.0 3.0 0.00 0.12 0.03 80 1022.4
20260504024814 74 122 2.0 3.0 0.00 0.12 0.03 80 1022.4
20260504024717 74 122 1.0 3.0 0.00 0.12 0.03 80 1022.4
20260504024622 74 122 0.0 3.0 0.00 0.12 0.03 80 1022.4
20260504024504 74 121 0.0 2.0 0.00 0.12 0.03 80 1022.4
20260504024408 74 121 0.0 2.0 0.00 0.12 0.03 80 1022.4
20260504024311 74 121 1.0 2.0 0.00 0.12 0.03 80 1022.4
20260504024217 74 121 1.0 2.0 0.00 0.12 0.03 80 1022.5
20260504024120 74 121 1.0 2.0 0.00 0.12 0.03 80 1022.5
20260504024021 74 121 0.0 2.0 0.00 0.12 0.03 80 1022.5
20260504023905 74 121 0.0 2.0 0.00 0.12 0.03 80 1022.4
20260504023808 74 121 1.0 2.0 0.00 0.12 0.03 80 1022.4
20260504023710 74 121 1.0 2.0 0.00 0.12 0.03 80 1022.5
20260504023633 74 121 1.0 2.0 0.00 0.12 0.03 80 1022.5
20260504023536 74 121 1.0 3.0 0.00 0.12 0.03 80 1022.4
20260504023403 74 121 0.0 6.0 0.00 0.12 0.03 79 1022.5
20260504023307 74 121 0.0 6.0 0.00 0.12 0.03 79 1022.6
20260504023208 74 121 1.0 6.0 0.00 0.12 0.03 79 1022.5
20260504023109 74 121 1.0 7.0 0.00 0.12 0.03 79 1022.5
20260504023013 74 121 1.0 7.0 0.00 0.12 0.03 79 1022.6
20260504022915 74 121 1.0 7.0 0.00 0.12 0.03 79 1022.5
20260504022817 74 121 2.0 7.0 0.00 0.12 0.03 79 1022.6
20260504022741 74 121 3.0 7.0 0.00 0.12 0.03 79 1022.6
20260504022607 74 121 3.0 7.0 0.00 0.12 0.03 79 1022.6
20260504022530 74 121 4.0 7.0 0.00 0.12 0.03 79 1022.5
20260504022433 74 124 4.0 7.0 0.00 0.12 0.03 79 1022.5
20260504022313 74 127 4.0 7.0 0.00 0.12 0.03 79 1022.6
20260504022216 74 130 4.0 7.0 0.00 0.12 0.03 79 1022.6
20260504022121 74 102 3.0 6.0 0.00 0.12 0.03 79 1022.6
20260504022004 74 94 3.0 5.0 0.00 0.12 0.03 79 1022.7
20260504021911 74 96 3.0 5.0 0.00 0.12 0.03 79 1022.5
20260504021815 74 145 3.0 5.0 0.00 0.12 0.03 79 1022.4
20260504021718 75 140 3.0 6.0 0.00 0.12 0.03 79 1022.6
20260504021621 74 113 2.0 6.0 0.00 0.12 0.03 79 1022.5
20260504021504 74 113 2.0 6.0 0.00 0.12 0.03 79 1022.5
20260504021408 75 113 3.0 6.0 0.00 0.12 0.03 79 1022.5
20260504021310 75 113 3.0 6.0 0.00 0.12 0.03 79 1022.5
20260504021216 74 113 3.0 6.0 0.00 0.12 0.03 79 1022.5
20260504021120 75 122 2.0 4.0 0.00 0.12 0.03 79 1022.4
20260504021023 75 123 2.0 4.0 0.00 0.12 0.03 79 1022.4
20260504020906 75 123 2.0 4.0 0.00 0.12 0.03 79 1022.4
20260504020809 75 122 1.0 4.0 0.00 0.12 0.03 79 1022.3
20260504020712 75 122 1.0 4.0 0.00 0.12 0.03 79 1022.4
20260504020620 75 122 2.0 4.0 0.00 0.12 0.03 79 1022.4
20260504020523 75 122 3.0 4.0 0.00 0.12 0.03 79 1022.4
20260504020406 75 122 3.0 4.0 0.00 0.12 0.03 79 1022.4
20260504020310 75 123 2.0 4.0 0.00 0.12 0.03 78 1022.4
20260504020211 75 123 2.0 3.0 0.00 0.12 0.03 78 1022.3
20260504020112 75 123 2.0 3.0 0.00 0.12 0.03 78 1022.3
20260504020014 75 123 1.0 3.0 0.00 0.12 0.03 78 1022.4
20260504015920 75 123 0.0 3.0 0.00 0.12 0.03 78 1022.4
20260504015843 75 123 1.0 3.0 0.00 0.12 0.03 78 1022.3
20260504015706 75 123 2.0 3.0 0.00 0.12 0.03 78 1022.3
20260504015610 75 123 1.0 3.0 0.00 0.12 0.03 78 1022.4
20260504015513 75 123 1.0 4.0 0.00 0.12 0.03 78 1022.3
20260504015416 75 123 0.0 4.0 0.00 0.12 0.03 78 1022.4
20260504015337 75 123 0.0 4.0 0.00 0.12 0.03 77 1022.3
20260504015238 75 123 0.0 4.0 0.00 0.12 0.03 77 1022.3
20260504015105 75 123 1.0 4.0 0.00 0.12 0.03 77 1022.3
20260504015007 75 123 1.0 4.0 0.00 0.12 0.03 77 1022.3
20260504014910 75 123 2.0 4.0 0.00 0.12 0.03 77 1022.4
20260504014812 75 123 2.0 4.0 0.00 0.12 0.03 77 1022.3
20260504014714 75 123 3.0 4.0 0.00 0.12 0.03 77 1022.4
20260504014636 75 123 2.0 4.0 0.00 0.12 0.03 77 1022.4
20260504014538 75 125 1.0 4.0 0.00 0.12 0.03 77 1022.5
20260504014403 76 142 1.0 3.0 0.00 0.12 0.03 77 1022.4
20260504014307 76 142 1.0 5.0 0.00 0.12 0.03 77 1022.4
20260504014211 76 143 1.0 6.0 0.00 0.12 0.03 77 1022.4
20260504014116 76 148 1.0 6.0 0.00 0.12 0.03 77 1022.4
20260504014019 76 148 1.0 6.0 0.00 0.12 0.03 76 1022.3
20260504013923 76 148 2.0 6.0 0.00 0.12 0.03 76 1022.4
20260504013810 76 148 2.0 6.0 0.00 0.12 0.03 76 1022.3
20260504013714 76 148 2.0 7.0 0.00 0.12 0.03 76 1022.3
20260504013617 76 149 2.0 10.0 0.00 0.12 0.03 76 1022.3
20260504013519 76 149 3.0 10.0 0.00 0.12 0.03 76 1022.3
20260504013442 76 152 2.0 10.0 0.00 0.12 0.03 76 1022.3
20260504013323 76 153 2.0 10.0 0.00 0.12 0.03 76 1022.2
20260504013204 76 90 2.0 10.0 0.00 0.12 0.03 76 1022.3
20260504013109 76 85 2.0 10.0 0.00 0.12 0.03 76 1022.3
20260504013011 76 103 4.0 10.0 0.00 0.12 0.03 75 1022.3
20260504012915 76 103 6.0 10.0 0.00 0.12 0.03 75 1022.2
20260504012818 76 155 7.0 10.0 0.00 0.12 0.03 76 1022.3
20260504012721 76 153 6.0 10.0 0.00 0.12 0.03 76 1022.3
20260504012623 76 117 5.0 10.0 0.00 0.12 0.03 76 1022.2
20260504012509 76 90 4.0 10.0 0.00 0.12 0.03 76 1022.2
20260504012413 77 107 4.0 10.0 0.00 0.12 0.03 75 1022.2
20260504012315 77 139 6.0 10.0 0.00 0.12 0.03 75 1022.2
20260504012238 77 115 6.0 10.0 0.00 0.12 0.03 75 1022.2
20260504012140 77 129 5.0 10.0 0.00 0.12 0.03 75 1022.2
20260504012020 77 121 4.0 10.0 0.00 0.12 0.03 75 1022.1
20260504011922 77 109 5.0 10.0 0.00 0.12 0.03 75 1022.0
20260504011806 77 97 6.0 10.0 0.00 0.12 0.03 75 1021.9
20260504011729 77 112 5.0 10.0 0.00 0.12 0.03 75 1021.9
20260504011635 77 106 5.0 9.0 0.00 0.12 0.03 75 1021.8
20260504011516 76 105 5.0 8.0 0.00 0.12 0.03 75 1021.7
20260504011419 76 117 5.0 8.0 0.00 0.12 0.03 76 1021.8
20260504011322 76 113 5.0 8.0 0.00 0.12 0.03 76 1021.7
20260504011205 76 113 5.0 8.0 0.00 0.12 0.03 76 1021.7
20260504011108 76 107 5.0 8.0 0.00 0.12 0.03 77 1021.7
20260504011010 76 109 5.0 8.0 0.00 0.12 0.03 77 1021.7
20260504010917 76 105 4.0 7.0 0.00 0.12 0.03 78 1021.7
20260504010841 75 128 4.0 7.0 0.00 0.12 0.03 78 1021.7
20260504010743 75 149 3.0 6.0 0.00 0.12 0.03 78 1021.7
20260504010606 75 175 2.0 4.0 0.00 0.12 0.03 78 1021.7
20260504010509 75 175 2.0 4.0 0.00 0.12 0.03 79 1021.7
20260504010412 75 175 1.0 4.0 0.00 0.12 0.03 79 1021.6
20260504010316 75 205 1.0 3.0 0.00 0.12 0.03 80 1021.7
20260504010222 75 205 1.0 3.0 0.00 0.12 0.03 80 1021.4
20260504010105 75 205 2.0 3.0 0.00 0.12 0.03 80 1021.6
20260504010009 75 205 1.0 3.0 0.00 0.12 0.03 80 1021.4
20260504005913 75 206 1.0 3.0 0.00 0.12 0.03 80 1021.5
20260504005815 75 206 1.0 3.0 0.00 0.12 0.03 80 1021.5
20260504005717 75 206 1.0 3.0 0.00 0.12 0.03 80 1021.4
20260504005620 75 206 0.0 3.0 0.00 0.12 0.03 81 1021.4
20260504005528 75 207 1.0 3.0 0.00 0.12 0.03 81 1021.3
20260504005429 75 207 2.0 3.0 0.00 0.12 0.03 81 1021.2
20260504005332 75 207 2.0 3.0 0.00 0.12 0.03 81 1021.3
20260504005214 75 207 1.0 3.0 0.00 0.12 0.03 81 1021.3
20260504005115 75 207 0.0 2.0 0.00 0.12 0.03 81 1021.3
20260504005019 75 208 0.0 0.0 0.00 0.12 0.03 81 1021.3
20260504004923 75 208 0.0 0.0 0.00 0.12 0.03 81 1021.2
20260504004805 75 208 0.0 0.0 0.00 0.12 0.03 81 1021.2
20260504004712 75 208 0.0 0.0 0.00 0.12 0.03 81 1021.2
20260504004615 75 208 0.0 0.0 0.00 0.12 0.03 81 1021.2
20260504004537 75 208 0.0 0.0 0.00 0.12 0.03 81 1021.2
20260504004419 75 208 0.0 0.0 0.00 0.12 0.03 81 1021.1
20260504004322 75 208 0.0 0.0 0.00 0.12 0.03 81 1021.1
20260504004205 75 208 0.0 0.0 0.00 0.12 0.03 81 1020.9
20260504004108 75 208 0.0 0.0 0.00 0.12 0.03 81 1020.9
20260504004015 75 208 0.0 0.0 0.00 0.12 0.03 81 1020.9
20260504003920 75 208 0.0 0.0 0.00 0.12 0.03 81 1020.9
20260504003842 75 208 0.0 2.0 0.00 0.12 0.03 81 1020.9
20260504003743 75 208 0.0 3.0 0.00 0.12 0.03 81 1020.8
20260504003604 75 208 0.0 4.0 0.00 0.12 0.03 81 1020.8
20260504003506 75 208 0.0 4.0 0.00 0.12 0.03 81 1020.7
20260504003408 75 283 0.0 4.0 0.00 0.12 0.03 81 1020.7
20260504003310 75 283 0.0 4.0 0.00 0.12 0.03 81 1020.7
20260504003217 75 283 0.0 4.0 0.00 0.12 0.03 81 1020.5
20260504003120 75 283 0.0 4.0 0.00 0.12 0.03 81 1020.5
20260504003023 75 283 1.0 4.0 0.00 0.12 0.03 81 1020.5
20260504002926 75 283 2.0 4.0 0.00 0.12 0.03 81 1020.5
20260504002806 75 282 2.0 4.0 0.00 0.12 0.03 81 1020.5
20260504002708 75 278 3.0 4.0 0.00 0.12 0.03 81 1020.5
20260504002608 75 281 3.0 4.0 0.00 0.12 0.03 81 1020.5
20260504002510 75 275 2.0 4.0 0.00 0.12 0.03 81 1020.5
20260504002418 75 114 1.0 3.0 0.00 0.12 0.03 81 1020.4
20260504002304 75 113 0.0 1.0 0.00 0.12 0.03 81 1020.4
20260504002205 75 113 0.0 0.0 0.00 0.12 0.03 81 1020.5
20260504002107 75 113 0.0 0.0 0.00 0.12 0.03 81 1020.5
20260504002010 75 114 0.0 1.0 0.00 0.12 0.03 81 1020.3
20260504001912 75 114 0.0 2.0 0.00 0.12 0.03 81 1020.4
20260504001816 75 114 0.0 2.0 0.00 0.12 0.03 81 1020.4
20260504001704 75 114 0.0 2.0 0.00 0.12 0.03 81 1020.5
20260504001608 75 114 0.0 3.0 0.00 0.12 0.03 81 1020.5
20260504001509 75 114 0.0 3.0 0.00 0.12 0.03 81 1020.4
20260504001412 75 114 0.0 3.0 0.00 0.12 0.03 81 1020.5
20260504001314 75 114 0.0 3.0 0.00 0.12 0.03 81 1020.4
20260504001218 75 114 0.0 3.0 0.00 0.12 0.03 81 1020.4
20260504001106 75 114 1.0 3.0 0.00 0.12 0.03 80 1020.4
20260504001009 75 114 1.0 3.0 0.00 0.12 0.03 80 1020.4
20260504000913 75 114 2.0 3.0 0.00 0.12 0.03 80 1020.3
20260504000817 75 114 2.0 3.0 0.00 0.12 0.03 80 1020.3
20260504000719 75 114 1.0 3.0 0.00 0.12 0.03 80 1020.3
20260504000624 75 114 1.0 3.0 0.00 0.12 0.03 80 1020.4
20260504000510 75 114 1.0 3.0 0.00 0.12 0.03 80 1020.4
20260504000416 75 113 1.0 3.0 0.00 0.12 0.03 80 1020.4
20260504000318 75 113 1.0 3.0 0.00 0.12 0.03 79 1020.4
20260504000222 75 114 1.0 3.0 0.00 0.12 0.03 79 1020.5
20260504000105 75 114 1.0 3.0 0.00 0.12 0.03 79 1020.5
20260504000009 75 114 2.0 3.0 0.00 0.12 0.03 79 1020.5
20260503235917 75 114 2.0 3.0 0.00 0.12 0.03 79 1020.5
20260503235840 75 114 2.0 3.0 0.00 0.12 0.03 79 1020.5
20260503235742 75 114 1.0 3.0 0.00 0.12 0.03 79 1020.5
20260503235624 75 114 0.0 3.0 0.00 0.12 0.03 79 1020.5
20260503235507 75 114 1.0 3.0 0.00 0.12 0.03 79 1020.5
20260503235410 75 114 1.0 3.0 0.00 0.12 0.03 79 1020.5
20260503235314 75 114 2.0 3.0 0.00 0.12 0.03 79 1020.5
20260503235217 75 114 1.0 3.0 0.00 0.12 0.03 79 1020.5
20260503235104 75 114 0.0 2.0 0.00 0.12 0.03 78 1020.6
20260503235007 75 114 0.0 2.0 0.00 0.12 0.03 78 1020.7
20260503234910 75 114 0.0 2.0 0.00 0.12 0.03 78 1020.8
20260503234813 75 114 0.0 2.0 0.00 0.12 0.03 78 1020.7
20260503234717 75 114 1.0 2.0 0.00 0.12 0.03 78 1020.8
20260503234620 75 114 1.0 2.0 0.00 0.12 0.03 78 1020.7
20260503234507 75 114 2.0 2.0 0.00 0.12 0.03 78 1020.8
20260503234411 76 115 2.0 2.0 0.00 0.12 0.03 78 1020.9
20260503234315 76 113 2.0 2.0 0.00 0.12 0.03 78 1020.9
20260503234219 76 113 1.0 2.0 0.00 0.12 0.03 78 1020.9
20260503234122 76 113 1.0 2.0 0.00 0.12 0.03 78 1021.0
20260503234005 76 113 0.0 2.0 0.00 0.12 0.03 78 1021.0
20260503233907 76 113 0.0 2.0 0.00 0.12 0.03 78 1021.0
20260503233813 76 113 0.0 3.0 0.00 0.12 0.03 78 1020.9
20260503233737 76 113 0.0 3.0 0.00 0.12 0.03 78 1020.9
20260503233639 76 113 0.0 6.0 0.00 0.12 0.03 78 1021.0
20260503233541 75 113 1.0 7.0 0.00 0.12 0.03 78 1020.9
20260503233404 75 113 0.0 7.0 0.00 0.12 0.03 79 1021.0
20260503233307 75 113 0.0 7.0 0.00 0.12 0.03 78 1020.9
20260503233211 75 113 0.0 7.0 0.00 0.12 0.03 79 1021.1
20260503233113 75 103 1.0 7.0 0.00 0.12 0.03 79 1021.1
20260503233021 75 103 2.0 7.0 0.00 0.12 0.03 79 1021.1
20260503232904 75 103 3.0 7.0 0.00 0.12 0.03 80 1021.4
20260503232808 75 103 4.0 7.0 0.00 0.12 0.03 80 1021.2
20260503232731 75 103 4.0 7.0 0.00 0.12 0.03 80 1021.3
20260503232633 75 100 5.0 7.0 0.00 0.12 0.03 80 1021.3
20260503232514 74 94 4.0 7.0 0.00 0.12 0.03 81 1021.3
20260503232416 74 78 3.0 6.0 0.00 0.12 0.03 81 1021.3
20260503232318 74 90 3.0 6.0 0.00 0.12 0.03 81 1021.3
20260503232205 74 95 3.0 6.0 0.00 0.12 0.03 81 1021.3
20260503232108 74 92 4.0 6.0 0.00 0.12 0.03 82 1021.2
20260503232011 74 94 3.0 6.0 0.00 0.12 0.03 82 1021.3
20260503231914 74 110 3.0 4.0 0.00 0.12 0.03 82 1021.2
20260503231818 74 111 3.0 4.0 0.00 0.12 0.03 82 1021.1
20260503231704 74 164 1.0 3.0 0.00 0.12 0.03 82 1021.0
20260503231605 74 167 0.0 3.0 0.00 0.12 0.03 82 1020.9
20260503231507 74 167 1.0 3.0 0.00 0.12 0.03 82 1020.9
20260503231411 74 168 2.0 3.0 0.00 0.12 0.03 82 1020.9
20260503231314 74 168 2.0 5.0 0.00 0.12 0.03 82 1021.0
20260503231217 74 168 2.0 5.0 0.00 0.12 0.03 82 1020.8
20260503231118 73 168 1.0 5.0 0.00 0.12 0.03 82 1020.8
20260503231020 73 167 0.0 5.0 0.00 0.12 0.03 82 1020.9
20260503230907 73 167 0.0 5.0 0.00 0.12 0.03 82 1020.9
20260503230808 73 167 0.0 5.0 0.00 0.12 0.03 82 1020.9
20260503230711 73 167 1.0 5.0 0.00 0.12 0.03 82 1020.8
20260503230611 73 167 2.0 5.0 0.00 0.12 0.03 82 1020.8
20260503230513 73 167 2.0 5.0 0.00 0.12 0.03 82 1020.8
20260503230415 73 167 1.0 5.0 0.00 0.12 0.03 82 1020.7
20260503230318 73 234 0.0 2.0 0.00 0.12 0.03 82 1020.7
20260503230204 73 234 0.0 2.0 0.00 0.12 0.03 82 1020.7
20260503230106 73 234 0.0 2.0 0.00 0.12 0.03 82 1020.7
20260503230009 73 234 0.0 2.0 0.00 0.12 0.03 82 1020.6
20260503225913 73 234 0.0 2.0 0.00 0.12 0.03 82 1020.5
20260503225816 73 234 0.0 2.0 0.00 0.12 0.03 82 1020.4
20260503225717 73 234 0.0 2.0 0.00 0.12 0.03 82 1020.4
20260503225621 73 234 0.0 2.0 0.00 0.12 0.03 82 1020.5
20260503225510 73 234 1.0 3.0 0.04 0.12 0.03 82 1020.4
20260503225413 73 234 1.0 3.0 0.04 0.12 0.03 82 1020.5
20260503225316 73 234 1.0 3.0 0.04 0.12 0.03 82 1020.5
20260503225219 73 234 1.0 3.0 0.04 0.12 0.03 82 1020.4
20260503225120 73 234 0.0 3.0 0.04 0.12 0.03 82 1020.4
20260503225004 73 234 0.0 3.0 0.04 0.12 0.03 82 1020.3
20260503224911 73 234 1.0 3.0 0.04 0.12 0.03 82 1020.4
20260503224814 73 234 2.0 3.0 0.04 0.12 0.03 82 1020.2
20260503224718 73 234 2.0 3.0 0.04 0.12 0.03 82 1020.2
20260503224621 73 234 2.0 3.0 0.04 0.12 0.03 82 1020.1
20260503224505 73 234 1.0 3.0 0.08 0.12 0.03 82 1020.3
20260503224408 73 234 1.0 3.0 0.08 0.12 0.03 82 1020.3
20260503224309 73 234 2.0 3.0 0.08 0.12 0.03 82 1020.4
20260503224215 73 234 1.0 3.0 0.12 0.12 0.03 82 1020.3
20260503224118 73 234 0.0 3.0 0.12 0.12 0.03 82 1020.3
20260503224019 73 234 0.0 3.0 0.12 0.12 0.03 82 1020.3
20260503223922 73 234 0.0 3.0 0.12 0.12 0.03 82 1020.4
20260503223806 73 234 1.0 3.0 0.12 0.12 0.03 81 1020.3
20260503223708 73 234 1.0 3.0 0.12 0.12 0.03 82 1020.3
20260503223616 73 234 1.0 3.0 0.12 0.12 0.03 82 1020.3
20260503223539 73 234 1.0 3.0 0.12 0.12 0.03 81 1020.3
20260503223419 73 234 1.0 3.0 0.12 0.12 0.03 81 1020.4
20260503223322 73 234 1.0 3.0 0.12 0.12 0.03 81 1020.3
20260503223206 73 234 1.0 4.0 0.12 0.12 0.03 81 1020.3
20260503223109 73 232 1.0 4.0 0.12 0.12 0.03 81 1020.3
20260503223017 73 232 1.0 6.0 0.12 0.12 0.03 81 1020.3
20260503222920 73 232 1.0 6.0 0.12 0.12 0.03 81 1020.3
20260503222804 73 232 2.0 6.0 0.12 0.12 0.03 81 1020.2
20260503222708 73 232 2.0 6.0 0.12 0.12 0.03 81 1020.3
20260503222612 73 233 2.0 6.0 0.12 0.12 0.03 81 1020.3
20260503222535 73 232 2.0 6.0 0.12 0.12 0.03 81 1020.3
20260503222418 73 231 1.0 6.0 0.12 0.12 0.03 81 1020.3
20260503222305 72 229 1.0 6.0 0.12 0.12 0.03 81 1020.3
20260503222207 73 231 2.0 6.0 0.12 0.12 0.03 81 1020.3
20260503222110 72 232 2.0 6.0 0.12 0.12 0.03 81 1020.3
20260503222012 73 197 2.0 6.0 0.12 0.12 0.03 80 1020.3
20260503221915 73 197 2.0 7.0 0.12 0.12 0.03 80 1020.3
20260503221819 73 264 2.0 7.0 0.12 0.12 0.03 80 1020.4
20260503221721 73 239 2.0 8.0 0.12 0.12 0.03 80 1020.4
20260503221609 73 242 2.0 9.0 0.12 0.12 0.03 80 1020.4
20260503221511 73 244 3.0 9.0 0.12 0.12 0.03 80 1020.3
20260503221414 73 244 3.0 9.0 0.12 0.12 0.03 80 1020.4
20260503221316 73 244 3.0 9.0 0.12 0.12 0.03 80 1020.3
20260503221220 73 241 3.0 9.0 0.12 0.12 0.03 79 1020.3
20260503221103 73 254 4.0 9.0 0.12 0.12 0.03 79 1020.3
20260503221007 73 238 4.0 9.0 0.12 0.12 0.03 79 1020.1
20260503220914 73 221 5.0 9.0 0.12 0.12 0.03 79 1020.3
20260503220817 73 254 5.0 9.0 0.12 0.12 0.03 79 1020.1
20260503220720 73 272 4.0 8.0 0.12 0.12 0.03 79 1020.2
20260503220604 73 267 3.0 8.0 0.12 0.12 0.03 79 1020.2
20260503220507 73 238 3.0 10.0 0.12 0.12 0.03 79 1020.1
20260503220411 73 207 3.0 10.0 0.12 0.12 0.03 78 1020.2
20260503220319 73 222 3.0 10.0 0.12 0.12 0.03 78 1020.2
20260503220243 74 238 3.0 10.0 0.12 0.12 0.03 78 1020.3
20260503220144 74 274 4.0 10.0 0.12 0.12 0.03 78 1020.3
20260503220026 74 252 4.0 10.0 0.12 0.12 0.03 77 1020.2
20260503215908 74 250 4.0 10.0 0.12 0.12 0.03 77 1020.2
20260503215811 74 262 6.0 10.0 0.12 0.12 0.03 76 1020.3
20260503215715 74 265 7.0 12.0 0.12 0.12 0.03 76 1020.3
20260503215623 75 269 6.0 16.0 0.12 0.12 0.03 76 1020.2
20260503215506 75 279 5.0 16.0 0.08 0.08 0.02 75 1020.2
20260503215410 76 269 6.0 16.0 0.08 0.08 0.02 74 1020.1
20260503215314 76 283 6.0 16.0 0.08 0.08 0.02 74 1020.1
20260503215217 76 286 5.0 16.0 0.08 0.08 0.02 73 1020.0
20260503215120 77 270 7.0 16.0 0.08 0.08 0.02 73 1020.0
20260503215008 78 275 6.0 16.0 0.08 0.08 0.02 72 1020.1
20260503214910 78 271 7.0 16.0 0.08 0.08 0.02 72 1020.0
20260503214812 79 312 7.0 16.0 0.08 0.08 0.02 71 1020.0
20260503214716 79 291 6.0 14.0 0.08 0.08 0.02 70 1020.1
20260503214617 80 278 5.0 11.0 0.04 0.04 0.01 69 1020.0
20260503214520 80 277 4.0 11.0 0.04 0.04 0.01 69 1019.9
20260503214442 81 44 4.0 11.0 0.04 0.04 0.01 71 1019.9
20260503214303 81 315 3.0 11.0 0.00 0.00 0.00 70 1020.0
20260503214209 81 59 3.0 11.0 0.00 0.00 0.00 70 1019.9
20260503213944 81 99 4.0 11.0 0.00 0.00 0.00 70 1020.1
20260503213803 81 161 2.0 6.0 0.00 0.00 0.00 70 1020.0
20260503213707 81 158 3.0 8.0 0.00 0.00 0.00 70 1020.3
20260503213611 81 109 3.0 9.0 0.00 0.00 0.00 70 1020.1
20260503213514 81 148 3.0 9.0 0.00 0.00 0.00 69 1020.3
20260503213421 81 46 3.0 9.0 0.00 0.00 0.00 69 1020.2
20260503213305 81 69 2.0 9.0 0.00 0.00 0.00 69 1020.2
20260503213229 82 89 2.0 9.0 0.00 0.00 0.00 69 1020.3
20260503213131 82 90 1.0 9.0 0.00 0.00 0.00 69 1020.2
20260503213012 82 61 1.0 9.0 0.00 0.00 0.00 69 1020.2
20260503212915 82 61 3.0 9.0 0.00 0.00 0.00 69 1020.2
20260503212819 82 61 5.0 9.0 0.00 0.00 0.00 69 1020.1
20260503212727 82 117 4.0 10.0 0.00 0.00 0.00 70 1020.1
20260503212610 82 132 3.0 10.0 0.00 0.00 0.00 70 1020.1
20260503212514 82 99 2.0 10.0 0.00 0.00 0.00 70 1020.0
20260503212417 82 36 3.0 10.0 0.00 0.00 0.00 70 1019.8
20260503212320 82 355 3.0 10.0 0.00 0.00 0.00 70 1019.8
20260503212222 82 336 3.0 10.0 0.00 0.00 0.00 70 1019.6
20260503212144 82 196 3.0 13.0 0.00 0.00 0.00 70 1019.5
20260503212011 82 211 4.0 13.0 0.00 0.00 0.00 70 1019.5
20260503211915 82 200 3.0 13.0 0.00 0.00 0.00 70 1019.5
20260503211816 83 213 3.0 13.0 0.00 0.00 0.00 69 1019.6
20260503211719 83 232 3.0 13.0 0.00 0.00 0.00 69 1019.6
20260503211623 83 172 4.0 13.0 0.00 0.00 0.00 69 1019.6
20260503211505 83 224 4.0 13.0 0.00 0.00 0.00 69 1019.7
20260503211408 83 92 4.0 13.0 0.00 0.00 0.00 69 1019.8
20260503211314 83 199 5.0 13.0 0.00 0.00 0.00 69 1019.8
20260503211218 83 159 5.0 12.0 0.00 0.00 0.00 68 1019.8
20260503211142 84 233 5.0 12.0 0.00 0.00 0.00 68 1019.6
20260503211023 84 162 4.0 10.0 0.00 0.00 0.00 68 1019.7
20260503210907 84 210 4.0 8.0 0.00 0.00 0.00 68 1019.5
20260503210809 84 209 4.0 8.0 0.00 0.00 0.00 67 1019.6
20260503210713 85 244 3.0 8.0 0.00 0.00 0.00 67 1019.6
20260503210619 85 208 2.0 7.0 0.00 0.00 0.00 67 1019.7
20260503210522 85 172 1.0 7.0 0.00 0.00 0.00 67 1019.6
20260503210405 85 233 3.0 7.0 0.00 0.00 0.00 67 1019.7
20260503210309 85 234 3.0 7.0 0.00 0.00 0.00 67 1019.8
20260503210213 85 313 2.0 7.0 0.00 0.00 0.00 67 1019.8
20260503210116 86 182 3.0 8.0 0.00 0.00 0.00 66 1019.9
20260503210038 86 176 3.0 8.0 0.00 0.00 0.00 67 1019.9
20260503205940 86 143 3.0 8.0 0.00 0.00 0.00 66 1019.9
20260503205807 86 200 3.0 14.0 0.00 0.00 0.00 66 1019.8
20260503205710 86 119 3.0 14.0 0.00 0.00 0.00 66 1020.0
20260503205614 86 103 3.0 14.0 0.00 0.00 0.00 66 1019.9
20260503205536 86 220 4.0 14.0 0.00 0.00 0.00 66 1019.9
20260503205415 86 133 3.0 14.0 0.00 0.00 0.00 66 1019.9
20260503205318 86 310 3.0 14.0 0.00 0.00 0.00 66 1020.0
20260503205219 86 121 4.0 14.0 0.00 0.00 0.00 67 1019.9
20260503205125 86 178 5.0 14.0 0.00 0.00 0.00 66 1020.1
20260503205006 86 226 6.0 14.0 0.00 0.00 0.00 66 1020.0
20260503204909 86 171 7.0 14.0 0.00 0.00 0.00 66 1020.0
20260503204812 86 219 6.0 12.0 0.00 0.00 0.00 66 1020.0
20260503204713 86 202 4.0 12.0 0.00 0.00 0.00 66 1020.0
20260503204617 86 205 4.0 12.0 0.00 0.00 0.00 66 1019.7
20260503204520 86 150 6.0 12.0 0.00 0.00 0.00 65 1019.8
20260503204405 86 204 6.0 13.0 0.00 0.00 0.00 65 1019.6
20260503204306 87 281 5.0 13.0 0.00 0.00 0.00 65 1019.6
20260503204208 87 105 6.0 13.0 0.00 0.00 0.00 65 1019.6
20260503204110 87 133 6.0 13.0 0.00 0.00 0.00 64 1019.5
20260503204013 87 123 4.0 13.0 0.00 0.00 0.00 64 1019.6
20260503203916 86 130 3.0 9.0 0.00 0.00 0.00 64 1019.6
20260503203819 87 124 4.0 9.0 0.00 0.00 0.00 64 1019.6
20260503203704 87 221 4.0 12.0 0.00 0.00 0.00 63 1019.6
20260503203605 87 144 3.0 12.0 0.00 0.00 0.00 63 1019.8
20260503203508 87 86 2.0 12.0 0.00 0.00 0.00 63 1019.8
20260503203412 87 238 3.0 12.0 0.00 0.00 0.00 63 1019.9
20260503203316 87 311 4.0 12.0 0.00 0.00 0.00 63 1019.9
20260503203220 87 228 3.0 12.0 0.00 0.00 0.00 63 1019.9
20260503203123 87 157 3.0 12.0 0.00 0.00 0.00 62 1020.1
20260503203010 87 143 3.0 12.0 0.00 0.00 0.00 62 1020.1
20260503202913 87 130 5.0 12.0 0.00 0.00 0.00 61 1020.2
20260503202816 88 250 6.0 12.0 0.00 0.00 0.00 62 1020.0
20260503202720 88 207 5.0 9.0 0.00 0.00 0.00 61 1020.0
20260503202623 88 259 5.0 9.0 0.00 0.00 0.00 61 1019.9
20260503202507 88 260 3.0 10.0 0.00 0.00 0.00 62 1019.9
20260503202414 88 208 3.0 10.0 0.00 0.00 0.00 62 1020.0
20260503202318 88 114 3.0 10.0 0.00 0.00 0.00 62 1019.9
20260503202239 88 204 2.0 10.0 0.00 0.00 0.00 62 1019.9
20260503202141 88 131 3.0 10.0 0.00 0.00 0.00 62 1019.8
20260503202021 88 117 3.0 10.0 0.00 0.00 0.00 62 1019.9
20260503201923 88 149 3.0 10.0 0.00 0.00 0.00 62 1019.9
20260503201806 88 213 4.0 10.0 0.00 0.00 0.00 62 1020.0
20260503201730 88 190 3.0 10.0 0.00 0.00 0.00 62 1020.1
20260503201634 88 293 3.0 10.0 0.00 0.00 0.00 62 1020.0
20260503201517 88 103 3.0 10.0 0.00 0.00 0.00 61 1020.0
20260503201421 88 212 4.0 10.0 0.00 0.00 0.00 61 1020.0
20260503201304 88 81 3.0 10.0 0.00 0.00 0.00 60 1019.9
20260503201209 88 123 5.0 10.0 0.00 0.00 0.00 60 1020.0
20260503201132 88 141 5.0 10.0 0.00 0.00 0.00 60 1020.0
20260503201034 88 127 3.0 10.0 0.00 0.00 0.00 60 1020.1
20260503200920 88 126 4.0 10.0 0.00 0.00 0.00 60 1020.1
20260503200823 88 141 3.0 10.0 0.00 0.00 0.00 60 1020.1
20260503200707 88 134 3.0 9.0 0.00 0.00 0.00 60 1020.1
20260503200609 88 134 4.0 9.0 0.00 0.00 0.00 60 1020.1
20260503200513 89 127 3.0 9.0 0.00 0.00 0.00 60 1020.1
20260503200415 88 146 3.0 9.0 0.00 0.00 0.00 61 1020.3
20260503200319 88 220 3.0 9.0 0.00 0.00 0.00 60 1020.3
20260503200227 88 237 3.0 9.0 0.00 0.00 0.00 59 1020.2
20260503200110 88 204 4.0 9.0 0.00 0.00 0.00 59 1020.2
20260503200013 88 242 4.0 9.0 0.00 0.00 0.00 60 1020.2
20260503195936 88 199 3.0 6.0 0.00 0.00 0.00 60 1020.3
20260503195839 88 228 3.0 7.0 0.00 0.00 0.00 59 1020.3
20260503195722 88 244 4.0 7.0 0.00 0.00 0.00 60 1020.4
20260503195604 87 268 3.0 7.0 0.00 0.00 0.00 61 1020.3
20260503195513 87 281 2.0 7.0 0.00 0.00 0.00 61 1020.4
20260503195416 87 314 3.0 7.0 0.00 0.00 0.00 61 1020.3
20260503195317 87 251 3.0 9.0 0.00 0.00 0.00 62 1020.4
20260503195241 86 257 3.0 9.0 0.00 0.00 0.00 62 1020.3
20260503195143 86 175 2.0 11.0 0.00 0.00 0.00 62 1020.4
20260503195025 86 161 1.0 11.0 0.00 0.00 0.00 63 1020.4
20260503194927 86 117 1.0 11.0 0.00 0.00 0.00 62 1020.5
20260503194808 86 118 3.0 11.0 0.00 0.00 0.00 62 1020.5
20260503194716 86 157 4.0 11.0 0.00 0.00 0.00 62 1020.6
20260503194619 86 109 4.0 11.0 0.00 0.00 0.00 62 1020.5
20260503194522 86 113 5.0 11.0 0.00 0.00 0.00 62 1020.6
20260503194406 86 111 7.0 11.0 0.00 0.00 0.00 61 1020.7
20260503194310 86 128 7.0 11.0 0.00 0.00 0.00 61 1020.7
20260503194213 87 132 5.0 11.0 0.00 0.00 0.00 63 1020.7
20260503194121 87 165 4.0 8.0 0.00 0.00 0.00 62 1020.7
20260503194005 87 206 3.0 9.0 0.00 0.00 0.00 61 1020.7
20260503193908 87 212 2.0 9.0 0.00 0.00 0.00 61 1020.7
20260503193830 87 117 2.0 10.0 0.00 0.00 0.00 62 1020.7
20260503193731 87 156 2.0 10.0 0.00 0.00 0.00 61 1020.9
20260503193634 87 117 3.0 10.0 0.00 0.00 0.00 62 1020.8
20260503193514 87 166 3.0 10.0 0.00 0.00 0.00 62 1020.9
20260503193436 87 166 3.0 10.0 0.00 0.00 0.00 62 1020.7
20260503193338 86 264 4.0 10.0 0.00 0.00 0.00 62 1020.7
20260503193205 87 265 5.0 10.0 0.00 0.00 0.00 62 1020.8
20260503193108 87 251 5.0 10.0 0.00 0.00 0.00 62 1020.8
20260503193032 87 184 5.0 10.0 0.00 0.00 0.00 61 1020.8
20260503192933 87 197 3.0 9.0 0.00 0.00 0.00 63 1020.8
20260503192815 87 194 2.0 12.0 0.00 0.00 0.00 63 1020.8
20260503192718 86 201 4.0 12.0 0.00 0.00 0.00 63 1020.8
20260503192622 86 134 5.0 12.0 0.00 0.00 0.00 63 1020.7
20260503192508 86 261 4.0 12.0 0.00 0.00 0.00 63 1020.7
20260503192412 86 284 5.0 12.0 0.00 0.00 0.00 63 1020.7
20260503192316 86 136 4.0 12.0 0.00 0.00 0.00 63 1020.8
20260503192218 86 91 5.0 12.0 0.00 0.00 0.00 63 1020.8
20260503192140 86 211 7.0 12.0 0.00 0.00 0.00 63 1020.9
20260503192043 86 169 6.0 12.0 0.00 0.00 0.00 63 1020.8
20260503191906 86 186 4.0 11.0 0.00 0.00 0.00 63 1020.9
20260503191812 86 267 5.0 11.0 0.00 0.00 0.00 63 1020.8
20260503191714 86 211 5.0 11.0 0.00 0.00 0.00 63 1020.9
20260503191617 86 238 5.0 11.0 0.00 0.00 0.00 63 1020.9
20260503191521 86 290 4.0 11.0 0.00 0.00 0.00 62 1020.9
20260503191404 86 215 4.0 11.0 0.00 0.00 0.00 62 1020.9
20260503191308 86 212 3.0 11.0 0.00 0.00 0.00 62 1020.9
20260503191211 86 189 2.0 11.0 0.00 0.00 0.00 62 1021.0
20260503191118 86 202 3.0 11.0 0.00 0.00 0.00 62 1020.9
20260503191042 86 222 4.0 11.0 0.00 0.00 0.00 62 1020.9
20260503190944 86 209 4.0 11.0 0.00 0.00 0.00 62 1021.1
20260503190805 86 186 4.0 11.0 0.00 0.00 0.00 62 1021.1
20260503190708 86 211 4.0 11.0 0.00 0.00 0.00 62 1021.0
20260503190611 86 226 5.0 11.0 0.00 0.00 0.00 62 1021.1
20260503190534 86 246 5.0 11.0 0.00 0.00 0.00 62 1021.2
20260503190437 86 227 5.0 10.0 0.00 0.00 0.00 62 1021.0
20260503190340 86 225 3.0 11.0 0.00 0.00 0.00 62 1021.1
20260503190206 86 177 2.0 12.0 0.00 0.00 0.00 62 1021.2
20260503190110 86 157 1.0 12.0 0.00 0.00 0.00 62 1021.2
20260503190012 85 156 2.0 12.0 0.00 0.00 0.00 62 1021.1
20260503185913 86 155 4.0 12.0 0.00 0.00 0.00 62 1021.2
20260503185815 85 143 3.0 12.0 0.00 0.00 0.00 62 1021.2
20260503185737 86 134 5.0 12.0 0.00 0.00 0.00 62 1021.3
20260503185639 86 136 6.0 12.0 0.00 0.00 0.00 62 1021.3
20260503185505 86 132 6.0 12.0 0.00 0.00 0.00 62 1021.3
20260503185408 86 159 4.0 12.0 0.00 0.00 0.00 62 1021.4
20260503185311 86 168 2.0 12.0 0.00 0.00 0.00 61 1021.4
20260503185215 86 78 4.0 12.0 0.00 0.00 0.00 61 1021.4
20260503185119 86 108 4.0 12.0 0.00 0.00 0.00 61 1021.3
20260503185043 87 155 3.0 12.0 0.00 0.00 0.00 61 1021.4
20260503184944 87 146 3.0 12.0 0.00 0.00 0.00 61 1021.4
20260503184828 87 175 5.0 12.0 0.00 0.00 0.00 60 1021.4
20260503184730 87 109 6.0 12.0 0.00 0.00 0.00 60 1021.5
20260503184613 88 148 5.0 12.0 0.00 0.00 0.00 59 1021.5
20260503184517 88 107 3.0 10.0 0.00 0.00 0.00 59 1021.5
20260503184420 88 94 3.0 10.0 0.00 0.00 0.00 59 1021.5
20260503184303 88 166 5.0 10.0 0.00 0.00 0.00 59 1021.4
20260503184205 88 161 4.0 10.0 0.00 0.00 0.00 59 1021.6
20260503184107 88 94 2.0 4.0 0.00 0.00 0.00 58 1021.6
20260503184014 88 112 2.0 4.0 0.00 0.00 0.00 58 1021.6
20260503183917 88 113 2.0 4.0 0.00 0.00 0.00 59 1021.6
20260503183818 88 114 1.0 4.0 0.00 0.00 0.00 60 1021.6
20260503183721 88 139 0.0 4.0 0.00 0.00 0.00 61 1021.5
20260503183624 87 166 1.0 4.0 0.00 0.00 0.00 61 1021.6
20260503183527 87 173 1.0 4.0 0.00 0.00 0.00 61 1021.6
20260503183410 86 175 1.0 4.0 0.00 0.00 0.00 61 1021.7
20260503183317 86 175 1.0 6.0 0.00 0.00 0.00 62 1021.7
20260503183221 86 176 1.0 6.0 0.00 0.00 0.00 63 1021.7
20260503183123 86 176 2.0 6.0 0.00 0.00 0.00 63 1021.8
20260503183005 85 177 3.0 6.0 0.00 0.00 0.00 64 1021.8
20260503182907 85 204 2.0 6.0 0.00 0.00 0.00 64 1021.8
20260503182811 85 119 2.0 6.0 0.00 0.00 0.00 64 1021.8
20260503182715 85 120 3.0 7.0 0.00 0.00 0.00 63 1021.9
20260503182623 85 120 3.0 7.0 0.00 0.00 0.00 63 1021.9
20260503182505 85 121 3.0 7.0 0.00 0.00 0.00 64 1021.9
20260503182408 85 121 3.0 7.0 0.00 0.00 0.00 63 1022.1
20260503182312 85 121 3.0 7.0 0.00 0.00 0.00 63 1022.0
20260503182215 85 118 2.0 7.0 0.00 0.00 0.00 64 1022.0
20260503182138 85 118 2.0 7.0 0.00 0.00 0.00 64 1022.1
20260503182038 85 117 4.0 9.0 0.00 0.00 0.00 64 1022.1
20260503181904 85 117 4.0 9.0 0.00 0.00 0.00 64 1022.1
20260503181808 85 124 3.0 9.0 0.00 0.00 0.00 63 1022.1
20260503181711 85 133 3.0 9.0 0.00 0.00 0.00 63 1022.1
20260503181615 85 133 3.0 9.0 0.00 0.00 0.00 63 1022.2
20260503181517 85 132 3.0 9.0 0.00 0.00 0.00 63 1022.1
20260503181420 85 133 3.0 9.0 0.00 0.00 0.00 63 1022.1
20260503181307 85 136 4.0 9.0 0.00 0.00 0.00 63 1022.2
20260503181211 86 125 5.0 9.0 0.00 0.00 0.00 63 1022.2
20260503181113 86 130 4.0 9.0 0.00 0.00 0.00 63 1022.2
20260503181015 86 115 2.0 6.0 0.00 0.00 0.00 63 1022.2
20260503180918 86 203 1.0 6.0 0.00 0.00 0.00 63 1022.2
20260503180821 86 242 2.0 6.0 0.00 0.00 0.00 63 1022.1
20260503180721 86 243 2.0 6.0 0.00 0.00 0.00 63 1022.2
20260503180608 86 241 2.0 6.0 0.00 0.00 0.00 63 1022.2
20260503180511 85 240 2.0 6.0 0.00 0.00 0.00 63 1022.2
20260503180415 85 240 1.0 6.0 0.00 0.00 0.00 63 1022.2
20260503180317 85 157 1.0 9.0 0.00 0.00 0.00 63 1022.3
20260503180221 85 157 2.0 9.0 0.00 0.00 0.00 63 1022.3
20260503180105 86 207 3.0 9.0 0.00 0.00 0.00 63 1022.3
20260503180012 86 208 3.0 9.0 0.00 0.00 0.00 63 1022.3
20260503175914 86 215 3.0 9.0 0.00 0.00 0.00 63 1022.4
20260503175818 86 218 3.0 9.0 0.00 0.00 0.00 63 1022.4
20260503175740 86 219 3.0 9.0 0.00 0.00 0.00 63 1022.5
20260503175641 86 226 4.0 9.0 0.00 0.00 0.00 63 1022.4
20260503175542 86 238 4.0 9.0 0.00 0.00 0.00 64 1022.5
20260503175425 85 118 2.0 9.0 0.00 0.00 0.00 64 1022.3
20260503175328 85 77 1.0 9.0 0.00 0.00 0.00 64 1022.4
20260503175210 85 93 2.0 9.0 0.00 0.00 0.00 64 1022.5
20260503175116 85 142 4.0 9.0 0.00 0.00 0.00 64 1022.6
20260503175020 85 158 6.0 9.0 0.00 0.00 0.00 63 1022.6
20260503174943 85 111 5.0 9.0 0.00 0.00 0.00 63 1022.7
20260503174805 85 144 2.0 8.0 0.00 0.00 0.00 64 1022.6
20260503174709 85 138 2.0 8.0 0.00 0.00 0.00 63 1022.6
20260503174612 85 145 3.0 8.0 0.00 0.00 0.00 63 1022.6
20260503174521 85 144 4.0 8.0 0.00 0.00 0.00 63 1022.6
20260503174405 85 111 3.0 8.0 0.00 0.00 0.00 64 1022.7
20260503174309 85 97 2.0 8.0 0.00 0.00 0.00 64 1022.7
20260503174214 85 167 2.0 8.0 0.00 0.00 0.00 64 1022.7
20260503174116 85 121 3.0 8.0 0.00 0.00 0.00 64 1022.6
20260503174019 85 121 4.0 8.0 0.00 0.00 0.00 64 1022.7
20260503173907 85 123 2.0 8.0 0.00 0.00 0.00 63 1022.7
20260503173811 85 133 2.0 5.0 0.00 0.00 0.00 63 1022.8
20260503173714 85 134 3.0 5.0 0.00 0.00 0.00 63 1022.8
20260503173637 85 139 4.0 5.0 0.00 0.00 0.00 64 1022.8
20260503173540 85 145 2.0 5.0 0.00 0.00 0.00 64 1022.8
20260503173422 85 163 2.0 5.0 0.00 0.00 0.00 64 1022.8
20260503173306 85 164 3.0 5.0 0.00 0.00 0.00 65 1022.8
20260503173214 85 165 2.0 5.0 0.00 0.00 0.00 64 1022.8
20260503173118 85 227 1.0 5.0 0.00 0.00 0.00 64 1022.7
20260503173021 85 148 1.0 5.0 0.00 0.00 0.00 64 1022.7
20260503172922 85 148 2.0 5.0 0.00 0.00 0.00 64 1022.9
20260503172805 84 259 2.0 5.0 0.00 0.00 0.00 64 1022.9
20260503172709 84 206 3.0 5.0 0.00 0.00 0.00 64 1022.9
20260503172633 84 207 3.0 5.0 0.00 0.00 0.00 64 1022.9
20260503172539 84 210 2.0 5.0 0.00 0.00 0.00 65 1022.8
20260503172421 84 221 2.0 7.0 0.00 0.00 0.00 65 1022.9
20260503172305 84 104 2.0 7.0 0.00 0.00 0.00 65 1023.0
20260503172206 84 93 1.0 7.0 0.00 0.00 0.00 65 1022.9
20260503172109 84 93 1.0 7.0 0.00 0.00 0.00 65 1023.0
20260503172011 84 93 1.0 7.0 0.00 0.00 0.00 65 1022.9
20260503171914 84 93 1.0 7.0 0.00 0.00 0.00 64 1023.1
20260503171822 84 93 2.0 7.0 0.00 0.00 0.00 65 1023.0
20260503171723 84 93 3.0 7.0 0.00 0.00 0.00 64 1023.0
20260503171605 84 128 4.0 7.0 0.00 0.00 0.00 64 1023.0
20260503171507 84 148 3.0 6.0 0.00 0.00 0.00 65 1023.0
20260503171410 84 174 1.0 4.0 0.00 0.00 0.00 65 1023.1
20260503171313 84 215 1.0 5.0 0.00 0.00 0.00 65 1023.0
20260503171237 84 217 1.0 5.0 0.00 0.00 0.00 65 1023.1
20260503171140 84 218 2.0 7.0 0.00 0.00 0.00 65 1023.0
20260503171027 84 228 3.0 8.0 0.00 0.00 0.00 65 1023.0
20260503170909 84 217 2.0 8.0 0.00 0.00 0.00 65 1023.0
20260503170834 84 215 1.0 8.0 0.00 0.00 0.00 66 1023.0
20260503170716 84 215 1.0 8.0 0.00 0.00 0.00 65 1023.0
20260503170620 84 286 2.0 8.0 0.00 0.00 0.00 65 1023.0
20260503170504 84 286 3.0 8.0 0.00 0.00 0.00 65 1022.8
20260503170408 84 281 4.0 8.0 0.00 0.00 0.00 65 1023.0
20260503170315 84 267 4.0 8.0 0.00 0.00 0.00 65 1023.0
20260503170219 84 269 4.0 8.0 0.00 0.00 0.00 65 1023.0
20260503170122 84 277 2.0 8.0 0.00 0.00 0.00 65 1023.0
20260503160119 86 233 3.0 7.0 0.00 0.00 0.00 59 1023.0
20260503150919 81 128 3.0 11.0 0.00 0.00 0.00 67 1023.1
20260503150821 81 127 3.0 11.0 0.00 0.00 0.00 67 1023.1
20260503150723 81 125 3.0 11.0 0.00 0.00 0.00 67 1023.1
20260503150606 81 116 6.0 11.0 0.00 0.00 0.00 67 1023.1
20260503150512 81 128 6.0 11.0 0.00 0.00 0.00 67 1023.2
20260503150413 82 112 5.0 11.0 0.00 0.00 0.00 66 1023.2
20260503150317 82 111 4.0 9.0 0.00 0.00 0.00 66 1023.2
20260503150220 82 118 5.0 9.0 0.00 0.00 0.00 66 1023.1
20260503150122 82 113 5.0 9.0 0.00 0.00 0.00 66 1023.2
20260503140308 78 306 1.0 2.0 0.00 0.00 0.00 74 1023.0
20260503140208 77 306 1.0 3.0 0.00 0.00 0.00 74 1022.9
20260503140110 77 306 1.0 3.0 0.00 0.00 0.00 74 1023.1
20260503131341 74 107 1.0 3.0 0.00 0.00 0.00 79 1022.9
20260503131203 74 107 2.0 3.0 0.00 0.00 0.00 79 1022.8
20260503131105 74 107 3.0 3.0 0.00 0.00 0.00 79 1022.8
20260503131013 74 107 2.0 3.0 0.00 0.00 0.00 79 1022.8
20260503130916 74 107 1.0 3.0 0.00 0.00 0.00 79 1022.7
20260503130840 74 107 1.0 3.0 0.00 0.00 0.00 79 1022.8
20260503130743 74 107 1.0 3.0 0.00 0.00 0.00 79 1022.8
20260503130624 74 107 1.0 3.0 0.00 0.00 0.00 79 1022.8
20260503130507 74 107 1.0 3.0 0.00 0.00 0.00 79 1022.9
20260503130410 74 107 1.0 3.0 0.00 0.00 0.00 79 1022.8
20260503130314 74 107 1.0 3.0 0.00 0.00 0.00 79 1022.9
20260503130242 74 107 2.0 3.0 0.00 0.00 0.00 79 1022.8
20260503130103 73 107 2.0 3.0 0.00 0.00 0.00 79 1022.8
20260503120211 72 225 0.0 3.0 0.00 0.00 0.00 81 1021.7
20260503120135 72 225 0.0 3.0 0.00 0.00 0.00 81 1021.7
20260503110822 72 227 2.0 5.0 0.00 0.00 0.00 81 1021.6
20260503110726 72 228 2.0 5.0 0.00 0.00 0.00 81 1021.6
20260503110628 72 146 2.0 3.0 0.00 0.00 0.00 81 1021.6
20260503110509 72 128 2.0 3.0 0.00 0.00 0.00 81 1021.6
20260503110410 72 128 2.0 3.0 0.00 0.00 0.00 81 1021.5
20260503110314 72 113 1.0 3.0 0.00 0.00 0.00 81 1021.6
20260503110220 72 108 1.0 3.0 0.00 0.00 0.00 81 1021.5
20260503110125 72 108 1.0 3.0 0.00 0.00 0.00 81 1021.6
20260503100213 72 107 3.0 6.0 0.00 0.00 0.00 81 1021.8
20260503100115 72 92 3.0 6.0 0.00 0.00 0.00 82 1021.8
20260503090444 70 226 0.0 2.0 0.00 0.00 0.00 81 1021.3
20260503090306 70 226 1.0 2.0 0.00 0.00 0.00 81 1021.3
20260503090209 70 226 1.0 2.0 0.00 0.00 0.00 81 1021.4
20260503090113 70 226 1.0 2.0 0.00 0.00 0.00 81 1021.3